Location: *
(37.5724°S, 58.0067°E)
Time: 12:09:51
(UTC+00:00)

Genesis I - Pass Details

Date: 23 January 2021
Orbit: 488 x 532 km, 64.5° (Epoch: 05 March)

Event Time Altitude Azimuth Distance (km) Brightness Sun altitude
Exits shadow 21:56:29 27° 189° (S) 1,049 5.2 -28.8°
Drops below altitude 10° 21:58:42 10° 165° (SSE) 1,778 6.8 -28.6°
Sets 22:01:00 0° 156° (SSE) 2,665 8.1 -28.4°
